819  
ASUS43 KIND 280609  
RWRIN  
 
WEATHER ROUNDUP FOR INDIANA  
NATIONAL WEATHER SERVICE INDIANAPOLIS IN  
100 AM EST SUN FEB 28 2021  
 
NOTE: "FAIR" INDICATES FEW OR NO CLOUDS BELOW 12,000 FEET WITH NO  
SIGNIFICANT WEATHER AND/OR S TO VISIBILITY
.  
 
* - STATION DOES NOT REPORT WEATHER SUCH AS PRECIPITATION OR FOG.
 
 
+ - STATION NOT QUALITY CONTROLLED BY THE NATIONAL WEATHER SERVICE.  
USE DATA WITH CAUTION...ESPECIALLY DEWPOINT AND RELATIVE  
HUMIDITY OBSERVATIONS.  
 
INZ001>003-010>013-019-020-280700-  
NORTHWEST INDIANA  
 
CITY SKY/WX TMP DP RH WIND PRES REMARKS
 
GARY /AIRPORT/ MOCLDY 41 37 86 SE9 29.98F  
KNOX *+ MOCLDY 37 36 93 E7 30.00F WCI 32  
LA PORTE + MOCLDY 34 33 96 E6 30.01F FOG WCI 29  
6HR MIN TEMP: 33; 6HR MAX TEMP: 39;  
 
MICHIGAN CITY+ MOCLDY 39 36 87 E3 30.01F  
MONTICELLO + MOCLDY 40 38 90 E8 29.97F WCI 35  
6HR MIN TEMP: 40; 6HR MAX TEMP: 45;  
 
RENSSELAER + MOCLDY 36 34 93 E5 29.98F FOG WCI 32  
VALPARAISO MOCLDY 36 32 85 E9 29.99F FOG WCI 29  
6HR MIN TEMP: 33; 6HR MAX TEMP: 40;  
 

 
 
LMZ046-743>745-280700-  
SOUTHERN LAKE MICHIGAN  
 
STATION/POSITION TIME TEMP WIND PRES WAVE
 
AIR SEA DIR/SP/G HT  
(UTC) (F) (DEG/KT/KT) (MB) (FT)  
BURNS HARBOR 0540 45 130/ 6/ 9 1016.3F  
MICHIGAN CITY 0540 43 110/ 6/ 8 N/A  
 

 
 
INZ004-005-014>016-021>024-280700-  
NORTH CENTRAL INDIANA  
 
CITY SKY/WX TMP DP RH WIND PRES REMARKS
 
GOSHEN MOCLDY 39 36 89 SE10 30.02F FOG WCI 32  
6HR MIN TEMP: 37; 6HR MAX TEMP: 42;  
 
LOGANSPORT + CLOUDY 37 37 100 E10 30.01F WCI 30  
PERU/GRISSOM CLOUDY 40 40 100 E9 29.98F WCI 34  
6HR MIN TEMP: 40; 6HR MAX TEMP: 43;  
 
PLYMOUTH *+ CLEAR 37 36 93 E7 30.01F FOG WCI 32  
ROCHESTER + MOCLDY 43 37 81 E9 30.02F  
SOUTH BEND MOCLDY 39 34 82 E8 30.02F WCI 33  
6HR MIN TEMP: 37; 6HR MAX TEMP: 42;  
 
WARSAW + MOCLDY 37 36 93 SE8 30.03F FOG WCI 31  
 

 
 
INZ006>009-017-018-025>027-280700-  
NORTHEAST INDIANA  
 
CITY SKY/WX TMP DP RH WIND PRES REMARKS
 
ANGOLA *+ MOCLDY 37 36 93 SE6 30.06F WCI 33  
AUBURN + MOCLDY 34 34 100 E5 30.07F FOG WCI 30  
FORT WAYNE CLOUDY 38 35 89 E7 30.05F WCI 33  
6HR MIN TEMP: 37; 6HR MAX TEMP: 40;  
 
HUNTINGTON + CLOUDY 40 39 95 E8 30.03F WCI 35  
6HR MIN TEMP: 38; 6HR MAX TEMP: 41;  
 
KENDALLVILLE + FAIR 37 37 100 SE6 30.06F FOG WCI 32  
 

 
 
INZ028-029-035-036-043>045-051>053-280700-  
WEST CENTRAL INDIANA  
 
CITY SKY/WX TMP DP RH WIND PRES REMARKS
 
CRAWFORDSVL + CLOUDY 43 40 90 CALM 29.96F  
6HR MIN TEMP: 42; 6HR MAX TEMP: 46;  
 
GREENCASTLE + DRIZZLE 47 45 91 SE7 29.97S  
LAFAYETTE MOCLDY 46 41 82 E9 29.97F  
6HR MIN TEMP: 43; 6HR MAX TEMP: 50;  
 
TERRE HAUTE NOT AVBL  
 

 
 
INZ030>032-037>040-046>048-054>057-064-065-280700-  
CENTRAL INDIANA  
 
CITY SKY/WX TMP DP RH WIND PRES REMARKS
 
ANDERSON + CLOUDY 45 41 88 SE9 30.01F  
FRANKFORT + CLOUDY 41 39 93 E12 29.97F FOG  
GREENWOOD *+ CLOUDY 47 44 87 SE8 29.99F  
INDIANAPOLIS CLOUDY 48 43 82 SE13 29.97F  
6HR MIN TEMP: 46; 6HR MAX TEMP: 49;  
 
-EAGLE CREEK CLOUDY 49 43 80 SE12 29.96F  
6HR MIN TEMP: 46; 6HR MAX TEMP: 52;  
 
KOKOMO + CLOUDY 39 39 100 E9 30.00F WCI 33  
6HR MIN TEMP: 37; 6HR MAX TEMP: 40;  
 
MARION + N/A 42 40 93 E10 30.01F FOG  
MT COMFORT *+ CLOUDY 46 46 100 E9 29.99F  
SHELBYVILLE LGT RAIN 50 44 80 E8 30.00F  
6HR MIN TEMP: 45; 6HR MAX TEMP: 51; 6HR PCP: TRACE;  
 

 
 
INZ033-034-041-042-049-050-058-059-280700-  
EAST CENTRAL INDIANA  
 
CITY SKY/WX TMP DP RH WIND PRES REMARKS
 
MUNCIE CLOUDY 45 40 82 E9 30.01F  
6HR MIN TEMP: 43; 6HR MAX TEMP: 49;  
 
PORTLAND + FAIR 43 37 81 SE8 30.04F  
RICHMOND + CLOUDY 43 43 100 SE13 30.04F  
 

 
 
INZ060-061-067>069-081>083-085>088-280700-  
SOUTHWEST INDIANA  
 
CITY SKY/WX TMP DP RH WIND PRES REMARKS
 
EVANSVILLE RAIN 54 50 86 CALM 29.98F FOG  
6HR MIN TEMP: 50; 6HR MAX TEMP: 54; 6HR PCP: 0.17;  
 
HUNTINGBURG + LGT RAIN 51 51 100 NE3 30.00R FOG  
6HR MIN TEMP: 50; 6HR MAX TEMP: 52; 6HR PCP: 0.15;  
 
WASHINGTON + RAIN 49 49 99 SE7 29.99S  
6HR MIN TEMP: 47; 6HR MAX TEMP: 50; 6HR PCP: 0.07;  
 

 
 
INZ062-063-066-070>080-084-089>092-280700-  
SOUTH CENTRAL AND SOUTHEAST INDIANA  
 
CITY SKY/WX TMP DP RH WIND PRES REMARKS
 
BATESVILLE + CLOUDY 48 48 100 E8 30.00F FOG  
BLOOMINGTON LGT RAIN 50 46 86 SE13G22 29.95F  
6HR MIN TEMP: 49; 6HR MAX TEMP: 50; 6HR PCP: 0.01;  
 
FRENCH LICK *+ CLOUDY 50 N/A N/A CALM 30.02R  
JEFFERSONVL + LGT RAIN 53 53 99 S3 29.99F  
6HR MIN TEMP: 51; 6HR MAX TEMP: 54;  
 
MADISON *+ CLOUDY 50 50 100 E5 30.02F  
 

 
 
 
 
CLICK HERE TO GO TO PREVIOUS BULLETINS.

The Nexlab IN Page Main Text Page